FW3192 Weather Reports


Display with metric or nautical units.
time (UTC)temp
F
wind
direction
speed
MPH
gust
MPH
rain 1hr
in
rain 24hr
in
rain mn
in
humidity
%
barometer
mb
20260902234513 58 254 7.0 14.0 0.00 0.00 0.00 85 1017.7
20260902233014 58 294 9.0 16.0 0.00 0.00 0.00 86 1017.4
20260902231506 56 318 8.0 13.0 0.00 0.00 0.00 89 1017.5
20260902230004 55 314 8.0 16.0 0.00 0.00 0.00 89 1017.3
20260902224505 54 325 10.0 13.0 0.00 0.00 0.00 89 1017.2
20260902223003 52 302 9.0 13.0 0.00 0.00 0.00 91 1017.0
20260902221600 51 309 7.0 12.0 0.00 0.00 0.00 92 1016.8
20260902220057 50 299 10.0 12.0 0.00 0.00 0.00 92 1016.6
20260902214536 50 315 7.0 12.0 0.00 0.00 0.00 92 1016.4
20260902213031 49 301 7.0 10.0 0.00 0.00 0.00 92 1016.2
20260902211527 49 342 4.0 11.0 0.00 0.00 0.00 91 1016.1
20260902210033 50 329 5.0 10.0 0.00 0.00 0.00 90 1016.0
20260902204521 52 335 5.0 9.0 0.00 0.00 0.00 87 1015.6
20260902203018 55 273 7.0 12.0 0.00 0.00 0.00 88 1015.6
20260902201520 55 263 8.0 15.0 0.00 0.00 0.00 88 1015.5
20260902200020 54 310 6.0 11.0 0.00 0.00 0.00 88 1015.3
20260902194557 54 259 7.0 15.0 0.00 0.00 0.00 88 1015.0
20260902193100 54 282 7.0 14.0 0.00 0.00 0.00 87 1014.9
20260902191530 55 322 8.0 13.0 0.00 0.00 0.00 86 1014.8
20260902190028 55 274 6.0 15.0 0.00 0.00 0.00 85 1014.7
20260902184527 55 251 9.0 15.0 0.00 0.00 0.00 84 1014.6
20260902183026 55 272 6.0 12.0 0.00 0.00 0.00 84 1014.5
20260902181526 55 292 7.0 13.0 0.00 0.00 0.00 83 1014.5
20260902180023 56 308 7.0 16.0 0.00 0.00 0.00 82 1014.5
20260902174521 56 299 8.0 16.0 0.00 0.00 0.00 82 1014.5
20260902173021 56 291 7.0 13.0 0.00 0.00 0.00 81 1014.6
20260902171505 56 314 8.0 13.0 0.00 0.00 0.00 80 1014.7
20260902170004 56 283 6.0 14.0 0.00 0.00 0.00 79 1014.8
20260902164505 56 294 8.0 14.0 0.00 0.00 0.00 77 1014.9
20260902163001 56 300 8.0 13.0 0.00 0.00 0.00 77 1014.9
20260902161600 56 277 8.0 14.0 0.00 0.00 0.00 75 1015.0
20260902160100 56 284 7.0 15.0 0.00 0.00 0.00 73 1015.2
20260902154608 56 283 8.0 14.0 0.00 0.00 0.00 74 1015.2
20260902153057 56 270 8.0 14.0 0.00 0.00 0.00 75 1015.2
20260902151538 56 268 6.0 16.0 0.00 0.00 0.00 75 1015.2
20260902150036 56 273 5.0 12.0 0.00 0.00 0.00 77 1015.3
20260902144522 56 271 7.0 11.0 0.00 0.00 0.00 77 1015.3
20260902143021 56 208 4.0 15.0 0.00 0.00 0.00 79 1015.5
20260902141520 55 225 5.0 12.0 0.00 0.00 0.00 78 1015.5
20260902140019 55 265 3.0 11.0 0.00 0.00 0.00 79 1015.6
20260902134517 56 266 4.0 9.0 0.00 0.00 0.00 80 1015.6
20260902133017 56 267 4.0 8.0 0.00 0.00 0.00 77 1015.7
20260902131515 56 287 3.0 12.0 0.00 0.00 0.00 79 1015.7
20260902130015 56 264 7.0 15.0 0.00 0.00 0.00 79 1015.7
20260902124557 56 223 9.0 15.0 0.00 0.00 0.00 77 1015.8
20260902123103 56 257 9.0 13.0 0.00 0.00 0.00 76 1015.9
20260902121538 56 232 6.0 12.0 0.00 0.00 0.00 79 1015.8
20260902120033 56 242 7.0 14.0 0.00 0.00 0.00 78 1016.0
20260902114524 56 203 7.0 11.0 0.00 0.00 0.00 79 1015.8
20260902113011 56 258 8.0 12.0 0.00 0.00 0.00 78 1015.6
20260902111558 56 237 5.0 10.0 0.00 0.00 0.00 77 1015.3
20260902110051 56 233 4.0 9.0 0.00 0.00 0.00 77 1015.2
20260902104535 56 259 5.0 11.0 0.00 0.00 0.00 77 1015.3
20260902103034 56 294 3.0 16.0 0.00 0.00 0.00 76 1015.3
20260902101534 56 218 9.0 13.0 0.00 0.00 0.00 74 1015.1
20260902100039 56 222 7.0 14.0 0.00 0.00 0.00 72 1015.0
20260902094533 56 287 4.0 8.0 0.00 0.00 0.00 71 1014.9
20260902093035 56 299 4.0 9.0 0.00 0.00 0.00 71 1014.7
20260902091531 57 272 3.0 14.0 0.00 0.00 0.00 69 1014.7
20260902090030 57 248 6.0 16.0 0.00 0.01 0.00 70 1014.5
20260902084520 55 269 3.0 7.0 0.00 0.01 0.00 73 1014.5
20260902083020 55 282 5.0 8.0 0.00 0.01 0.00 71 1014.2
20260902081518 56 240 4.0 8.0 0.00 0.01 0.00 70 1014.1
20260902080018 57 265 3.0 9.0 0.00 0.02 0.00 69 1014.0
20260902074524 58 247 5.0 10.0 0.00 0.02 0.00 70 1014.0
20260902073013 58 205 6.0 15.0 0.00 0.02 0.00 70 1013.9
20260902071514 58 306 4.0 8.0 0.00 0.02 0.00 71 1014.0
20260902070010 57 266 2.0 8.0 0.00 0.12 0.00 73 1014.1
20260902064511 58 258 2.0 8.0 0.00 0.12 0.00 72 1014.1
20260902063053 58 229 2.0 6.0 0.00 0.12 0.00 70 1014.0
20260902061605 58 249 1.0 6.0 0.00 0.12 0.00 71 1014.0
20260902060031 58 246 2.0 6.0 0.00 0.12 0.00 70 1014.1
20260902054538 58 242 1.0 6.0 0.00 0.12 0.00 71 1014.1
20260902053028 58 248 3.0 7.0 0.00 0.12 0.00 68 1014.2
20260902051528 59 273 1.0 5.0 0.00 0.12 0.00 67 1014.2
20260902050037 58 247 3.0 6.0 0.00 0.12 0.00 67 1014.3
20260902044526 59 262 3.0 5.0 0.00 0.12 0.00 66 1014.4
20260902043024 59 244 3.0 7.0 0.00 0.12 0.00 65 1014.3
20260902041525 59 231 3.0 6.0 0.00 0.12 0.00 66 1014.5
20260902040008 59 267 4.0 9.0 0.00 0.12 0.00 67 1014.6
20260902034508 59 242 3.0 7.0 0.00 0.12 0.00 66 1014.8
20260902033006 59 314 1.0 8.0 0.00 0.12 0.00 67 1014.9
20260902031504 60 247 3.0 6.0 0.00 0.12 0.00 67 1015.1
20260902030002 60 228 3.0 14.0 0.00 0.12 0.00 69 1015.3
20260902024621 59 239 8.0 13.0 0.00 0.12 0.00 69 1015.4
20260902023104 59 253 6.0 11.0 0.00 0.12 0.00 70 1015.6
20260902021604 59 241 6.0 12.0 0.00 0.12 0.00 67 1015.7
20260902020040 59 263 7.0 13.0 0.00 0.12 0.00 66 1015.8
20260902014541 58 255 8.0 11.0 0.00 0.12 0.00 69 1015.9
20260902013035 59 266 8.0 13.0 0.00 0.12 0.00 69 1016.1
20260902011532 59 249 5.0 13.0 0.00 0.12 0.00 70 1016.3
20260902010028 58 245 4.0 14.0 0.00 0.12 0.00 69 1016.5
20260902004527 58 277 4.0 12.0 0.00 0.12 0.00 70 1016.7
20260902003027 58 294 7.0 11.0 0.00 0.12 0.00 70 1016.8
20260902001525 57 230 6.0 13.0 0.00 0.12 0.00 73 1016.9
20260902000011 57 281 7.0 12.0 0.00 0.12 0.00 75 1016.9